Showing default

SALSAT, 46495

Orbit data source: Space-Track

SALSAT, 46495 is a payload satellite owned by TUB (DE) in SSO that was launched on Mon, 28 Sep 2020 UTC via a SOYUZ-2-1B launch vehicle from the Plesetsk Missile And Space Complex (PKMTR). Payloads include a variety of satellites, spacecraft, and rockets equipped with specific instruments for various scientific and technological missions. These include communications satellites like Starlink; space stations such as the ISS; scientific satellites like the Hubble; Earth observation satellites from companies like Planet Labs, Umbra, and HawkEye 360; GPS; miniature CubeSats for education and research; and military/defense satellites.

Loading next visibility...
SALSAT details
Identifier
46495, 2020-068K
Orbit
SSO
Last TLE update16 hours ago
Origin
Flag of DETUB (DE / GER)
ManufacturerTUB
MissionOperational Amateur Sigint
Bus & MotorTUBIX10, Unknown motor
Mass12 kg wet, 12 kg dry
Launch date (UTC)
2020-09-28 (4 years ago)
Launch vehicle
SOYUZ-2-1B
Launch site
Plesetsk Missile And Space Complex (PKMTR)
Object type
Payload
Rocket body
Debris
Shape & HBRBox, Unknown HBR
Radar Cross Section0.086 m², Medium (>0.1 m² and < 1m²)

Expand to show TLE details & history

TLE from 16 hours ago
0 SALSAT
1 46495U 20068K   24360.87442564  .00014401  00000-0  69996-3 0  9991
2 46495  97.8409 325.9716 0013590  23.7430 336.4427 15.18466038233343
Epoch: 2024-12-25T20:59Z
Definitive object data (Epoch: 2024-12-25T20:59:10.375Z)
Latitude-0.00004°
Longitude-83.68354°
Altitude504.97 km
Speed7.616 km/s
True Right ascension21h 43m 53s
True Declination0° 00' 00"
Sunlit
Object was in daylight at TLE epoch
Visualization TLE readout
Latitude-14.81059°
Longitude-80.92813°
Altitude509.017 km
Speed7.613 km/s
Apparent Right ascension22h 50m 05s
Apparent Declination-27° 40' 07"
Sunlit
Object is in daylight
Visualization observer readout
Local Sidereal Time12:05:44
Azimuth57.706° ENE
Elevation-70.146°
Doppler factor1
Orbital elements
Apogee altitude516.821 km
Perigee altitude498.105 km
Semi-major axis6,885.6 km
Eccentricity0.001359
Inclination97.8409°
RAAN325.9716°
Arg. of periapsis23.743°
True anomaly336.38036°
Mean anomaly336.4427°
Eccentric anomaly336.41154°
Mean motion3.79866 °/min
BSTAR0.00069996
Orbital period94.77 mins
Loading maneuver chart data...
Loading historical data...
Loading historical data...
Loading historical data...
Loading historical data...
Loading historical data...
Loading historical data...
Loading historical data...

SALSAT Visibility forecast

Observer location: undefined°, undefined

Span
Click to sort rows by Start time (UTC) header in descending order
Start Az.
Max El. time (UTC)
Max El. Az.
Max El.
End time (UTC)
End Az.
4 mins2024-12-26 22:26:10.839Z213.857° SW2024-12-26 22:28:10.839Z278.621° WNW29.268°2024-12-26 22:30:10.839Z321.616° NNW
4 mins2024-12-27 09:57:10.839Z62.793° ENE2024-12-27 09:59:10.839Z102.945° ESE17.624°2024-12-27 10:01:10.839Z137.387° SSE
4 mins2024-12-27 11:31:10.839Z326.86° NNW2024-12-27 11:33:10.839Z275.933° WNW23.292°2024-12-27 11:35:10.839Z238.394° WSW
|